Beidou DW 33

operational
NORAD ID: 43581 Int'l Des: 2018-062 Owner: CNSA Country: CN Constellation: BeiDou
MEOCIRCULAR

Beidou DW 33について

説明を読み込み中...

リアルタイム位置

3D地球を読み込み中...

次回通過

高度履歴

Altitude vs Time

uPlot chart will show altitude changes over time

軌道要素

1 43581U 18062A 25304.36399786 .00000035 00000-0 00000+0 0 9990
2 43581 54.0901 190.0858 0002674 327.1545 32.9083 1.86228665 49371
Epoch: Oct 31, 2025 • Age: 13 hours

現在のステータス

高度 21522.3 km
速度 3.78 km/s
衛星直下点 6.14°N, 174.33°W
打ち上げ日 Jul 29, 2018
運用期間 7.2 years
タイプ navigation

打ち上げグループ

Unknown Vehicle • BeiDou Launch 30 • 2 satellites

技術仕様

分類 Payload
質量 1014.00 kg
乾燥質量 850.00 kg
総質量 1014.00 kg
長さ 2.20 m
直径 1.70 m
スパン 10.00 m
形状 Box + 2 Pan
製造者 CAST
バスタイプ BD-3M
フェーズステータス In Orbit
所有者/国 CNSA/CN

大規模コンステレーション

Loading constellations...